Estación municipal de Susqueda - Veïnat del Coll (La Selva, )

Consulta los datos en tiempo real de la estación municipal de Susqueda - Veïnat del Coll





Hora UTC 05:00
Temperatura 18.6 ºC
Humedad 73.9 %
Presión 1024.6 hPa
Pluja 0.0 mm
Velocidad viento 2.7 km/h
Dirección viento SSW
Radiación solar 0.5 W/m²

Datos diarios 2026-09-03



Hora UTC (invierno +1h; verano +2h)
Temperatura (ºC) Humedad (%) Presión (hPa) Velocidad viento (km/h) Precipitación (mm) Radiación solar (W/m²)
Hora UTC Aire Humedad Presión Vel. Dir. Vel. Max Dir. Intent. máx 5 min. Rad. Sol.
00:05 19.7 66.8 1025.2 6.7 SE 6.7 SE 0.0 0.1
00:10 19.6 66.4 1025.2 5.3 SSE 8.8 SE 0.0 0.1
00:15 19.8 63.4 1025.2 3.9 SSE 7.1 SE 0.0 0.2
00:20 19.8 63.8 1025.2 3.6 SSE 5.6 SE 0.0 0.1
00:25 19.7 65.0 1025.2 4.0 SSE 7.1 SSE 0.0 0.1
00:30 19.7 64.5 1025.2 4.1 SSE 8.1 ESE 0.0 0.1
00:35 19.7 64.8 1025.2 4.1 S 6.0 SSW 0.0 0.1
00:40 19.4 66.9 1025.2 4.3 SSW 8.1 S 0.0 0.1
00:45 19.3 68.2 1025.3 3.6 SSW 6.0 SW 0.0 0.1
00:50 19.3 69.0 1025.3 3.3 SSW 5.6 SW 0.0 0.1
00:55 19.2 69.3 1025.3 3.8 SSW 6.7 SW 0.0 0.1
01:00 19.3 69.3 1025.3 3.8 SSW 6.7 SW 0.0 0.1
01:05 19.2 69.8 1025.2 4.1 SW 6.7 SSW 0.0 0.1
01:10 19.1 69.9 1025.2 4.6 SSW 7.1 S 0.0 0.1
01:15 19.1 71.2 1025.2 4.5 SW 7.1 SW 0.0 0.1
01:20 19.0 73.6 1025.2 3.7 SW 6.7 SSW 0.0 0.1
01:25 18.9 74.9 1025.2 4.5 SW 8.5 SSW 0.0 0.1
01:30 18.9 75.6 1025.2 3.5 SW 6.4 SW 0.0 0.1
01:35 18.9 75.9 1025.2 3.1 SW 6.0 SW 0.0 0.1
01:40 18.8 76.1 1025.2 2.8 SW 4.9 SSW 0.0 0.1
01:45 18.7 76.4 1025.2 2.9 SW 7.4 S 0.0 0.1
01:50 18.6 77.0 1025.2 3.4 SSW 6.4 SSW 0.0 0.1
01:55 18.5 77.2 1025.2 3.2 SSW 5.3 SW 0.0 0.1
02:00 18.6 76.7 1025.2 3.9 SSW 7.4 S 0.0 0.1
02:05 18.6 76.5 1025.1 3.6 SSW 6.7 SSW 0.0 0.1
02:10 18.7 76.3 1025.1 3.3 SW 6.0 SW 0.0 0.1
02:15 18.6 76.8 1025.0 3.4 SW 6.4 SW 0.0 0.1
02:20 18.6 76.8 1025.0 3.9 SW 8.8 SSW 0.0 0.1
02:25 18.6 76.5 1025.0 4.0 SSW 9.5 SW 0.0 0.1
02:30 18.7 75.9 1025.0 4.5 SSW 9.2 SW 0.0 0.1
02:35 18.8 75.0 1025.0 4.3 SW 8.1 SW 0.0 0.1
02:40 18.9 74.6 1025.0 3.7 SSW 8.1 SW 0.0 0.1
02:45 19.0 74.8 1025.0 3.9 SW 6.7 SSW 0.0 0.1
02:50 18.9 75.4 1025.0 4.2 SW 12.4 SW 0.0 0.1
02:55 18.9 75.4 1025.0 4.5 SW 9.9 S 0.0 0.1
03:00 18.9 75.0 1025.0 4.2 SW 9.9 SSW 0.0 0.1
03:05 19.0 74.6 1024.9 4.2 SW 8.5 W 0.0 0.1
03:10 19.0 74.4 1024.9 4.9 SSW 10.2 S 0.0 0.1
03:15 19.0 74.5 1024.9 4.4 SSW 9.5 WSW 0.0 0.1
03:20 19.0 74.7 1024.9 4.1 SSW 9.2 SSW 0.0 0.1
03:25 19.0 74.7 1024.9 4.6 SSW 9.2 SSW 0.0 0.1
03:30 18.9 75.2 1024.9 3.9 SSW 7.4 S 0.0 0.1
03:35 18.8 74.8 1024.8 4.3 SSW 7.1 SW 0.0 0.1
03:40 18.9 72.7 1024.8 3.8 S 9.2 SSW 0.0 0.1
03:45 19.2 70.1 1024.6 2.4 S 4.9 SE 0.0 0.1
03:50 19.3 69.2 1024.6 3.3 SSW 7.1 SSW 0.0 0.1
03:55 19.4 68.8 1024.6 2.5 SSE 11.3 SSW 0.0 0.1
04:00 19.4 69.1 1024.6 2.1 SSE 9.9 WSW 0.0 0.1
04:05 19.2 70.1 1024.6 2.6 S 13.4 S 0.0 0.1
04:10 19.0 71.5 1024.6 2.7 SSW 6.4 S 0.0 0.1
04:15 18.8 72.1 1024.6 4.3 SSW 11.3 WSW 0.0 0.1
04:20 19.0 71.3 1024.6 3.6 S 9.5 S 0.0 0.2
04:25 19.2 69.9 1024.5 1.8 SSE 7.4 SSW 0.0 0.1
04:30 19.4 69.4 1024.5 2.5 S 7.1 SSE 0.0 0.1
04:35 19.3 69.5 1024.5 2.7 SSE 7.1 S 0.0 0.1
04:40 19.3 69.6 1024.5 2.5 S 5.6 SSW 0.0 0.1
04:45 19.1 70.7 1024.5 2.1 S 5.6 SSE 0.0 0.1
04:50 19.1 71.1 1024.5 2.1 SSW 8.8 S 0.0 0.1
04:55 18.9 72.0 1024.6 1.5 SSW 6.0 SSE 0.0 0.2
05:00 18.6 73.9 1024.6 2.7 SSW 6.4 WSW 0.0 0.5
Máxima 19.8 77.2 1025.3 6.7 SE 13.4 S 0.0 0.5
Mínima 18.5 63.4 1024.5
Total 0.0